Location: Bois de la Silve
(44.4667°N, 6.7833°E)
Time: 20:51:58
(UTC+00:00)

Resurs 1-4 Rocket - Pass Details

Date: 14 July 2020
Orbit: 799 x 814 km, 98.6° (Epoch: 14 August)

Event Time Altitude Azimuth Distance (km) Brightness Sun altitude
Rises 03:03:05 0° 356° (N) 3,348 5.9 -9.1°
Reaches altitude 10° 03:06:50 10° 329° (NNW) 2,408 4.7 -8.6°
Maximum altitude 03:09:02 13° 305° (NW) 2,216 4.3 -8.4°
Drops below altitude 10° 03:11:14 10° 280° (W) 2,399 4.2 -8.1°
Enters shadow 03:13:26 - 261° (W) 2,881 4.5 -7.8°
